Regional Weather Roundup
Issued by NWS

Home | Current Version | Previous Version | Text Only | Print | Product List | Glossary On
Versions: 1 2 3 4 5 6 7 8 9 10 11 12 13 14 15 16 17 18 19 20 21 22 23 24 25 26 27 28 29 30 31 32 33 34 35 36 37 38 39 40 41 42 43 44 45 46 47 48 49 50
000
ASUS45 KBOI 310210
RWRID

IDAHO REGIONAL WEATHER ROUNDUP
NATIONAL WEATHER SERVICE BOISE ID
800 PM MDT SAT JUL 30 2016

NOTE: "FAIR" INDICATES FEW OR NO CLOUDS BELOW 12000 FEET
WITH NO SIGNIFICANT WEATHER AND/OR OBSTRUCTIONS TO VISIBILITY

IDZ012-014-310300-
SOUTHWEST IDAHO


CITY           SKY/WX    TMP DP  RH WIND       PRES   REMARKS
BOISE          SUNNY     97  28   8 NW9       29.72F HX  91
CALDWELL       SUNNY     96  47  18 NW6       29.69F HX  92
MOUNTAIN HOME  SUNNY     98  38  12 N13       29.73S HX  93
$$

IDZ016-017-310300-
SOUTHCENTRAL IDAHO


CITY           SKY/WX    TMP DP  RH WIND       PRES   REMARKS
BURLEY         CLOUDY    83  50  31 S15       29.84F
JEROME         PTCLDY    85  52  32 S7        29.84F
TWIN FALLS     MOCLDY    89  45  21 S15G24    29.85S
$$

IDZ019>023-310300-
SOUTHEAST IDAHO


CITY           SKY/WX    TMP DP  RH WIND       PRES   REMARKS
IDAHO FALLS    PTCLDY    86  46  24 SW12      29.87R
POCATELLO      MOCLDY    88  41  19 SW17G25   29.86S
REXBURG        CLEAR     85  47  26 S6        29.86F
$$

IDZ006-010-011-018-031-032-310300-
CENTRAL IDAHO MOUNTAINS


CITY           SKY/WX    TMP DP  RH WIND       PRES   REMARKS
MCCALL         SUNNY     84  24  11 W6        29.91S
HAILEY         PTCLDY    86  41  20 W12       29.92S
STANLEY          N/A     81  24  12 VRB6      30.03S
SALMON         CLEAR     88  39  18 W8        29.71F
CHALLIS        CLEAR     89  20   8 NW16G24   29.85S
$$

IDZ002-004-006-007-026-310300-
NORTHERN IDAHO


CITY           SKY/WX    TMP DP  RH WIND       PRES   REMARKS
LEWISTON       SUNNY     93  23   8 W22G30    29.67R
LOWELL           N/A     79  57  46 CALM      29.67R
COEUR D`ALENE  SUNNY     88  39  18 S18G25    29.67F
MULLAN PASS    SUNNY     68  41  37 VRB3      29.96F
$$



USA.gov is the U.S. government's official web portal to all federal, state and local government web resources and services.